| time (UTC) | temp C | wind direction | speed KPH | gust KPH | rain 1hr cm | rain 24hr cm | rain mn cm | humidity % | barometer mb |
| 20260507231558 | 21 | 150 | 1.6 | 17.7 | 0.00 | 0.00 | 0.00 | 69 | 1013.2 |
| 20260507231537 | 21 | 359 | 4.8 | 27.4 | 0.00 | 0.00 | 0.00 | 42 | 1011.0 |
| 20260507230052 | 22 | 121 | 0.0 | 14.5 | 0.00 | 0.00 | 0.00 | 68 | 1013.3 |
| 20260507230029 | 21 | 359 | 11.3 | 25.7 | 0.00 | 0.00 | 0.00 | 41 | 1011.1 |
| 20260507224554 | 22 | 146 | 0.0 | 3.2 | 0.00 | 0.00 | 0.00 | 68 | 1013.5 |
| 20260507224528 | 21 | 359 | 9.7 | 30.6 | 0.00 | 0.00 | 0.00 | 42 | 1011.4 |
| 20260507223055 | 22 | 178 | 0.0 | 8.0 | 0.00 | 0.00 | 0.00 | 66 | 1013.5 |
| 20260507223026 | 20 | 165 | 20.9 | 33.8 | 0.00 | 0.00 | 0.00 | 42 | 1011.3 |
| 20260507221549 | 23 | 171 | 0.0 | 11.3 | 0.00 | 0.00 | 0.00 | 65 | 1013.6 |
| 20260507221525 | 21 | 359 | 14.5 | 24.1 | 0.00 | 0.00 | 0.00 | 42 | 1011.5 |
| 20260507220048 | 23 | 159 | 0.0 | 8.0 | 0.00 | 0.00 | 0.00 | 65 | 1013.8 |
| 20260507220024 | 20 | 359 | 16.1 | 29.0 | 0.00 | 0.00 | 0.00 | 43 | 1011.6 |
| 20260507214546 | 23 | 137 | 0.0 | 0.0 | 0.00 | 0.00 | 0.00 | 63 | 1013.9 |
| 20260507214528 | 20 | 359 | 17.7 | 30.6 | 0.00 | 0.00 | 0.00 | 44 | 1011.6 |
| 20260507213048 | 23 | 184 | 1.6 | 14.5 | 0.00 | 0.00 | 0.00 | 62 | 1014.0 |
| 20260507213022 | 20 | 208 | 9.7 | 33.8 | 0.00 | 0.00 | 0.00 | 44 | 1011.7 |
| 20260507211545 | 23 | 148 | 0.0 | 16.1 | 0.00 | 0.00 | 0.00 | 63 | 1014.1 |
| 20260507211518 | 20 | 188 | 19.3 | 40.2 | 0.00 | 0.00 | 0.00 | 45 | 1011.8 |
| 20260507210045 | 23 | 160 | 0.0 | 14.5 | 0.00 | 0.00 | 0.00 | 62 | 1014.2 |
| 20260507210017 | 20 | 192 | 14.5 | 30.6 | 0.00 | 0.00 | 0.00 | 46 | 1012.2 |
| 20260507204544 | 23 | 125 | 0.0 | 9.7 | 0.00 | 0.00 | 0.00 | 63 | 1014.4 |
| 20260507204515 | 20 | 114 | 19.3 | 40.2 | 0.00 | 0.00 | 0.00 | 45 | 1012.4 |
| 20260507203041 | 23 | 162 | 0.0 | 11.3 | 0.00 | 0.00 | 0.00 | 65 | 1014.6 |
| 20260507203010 | 19 | 213 | 14.5 | 32.2 | 0.00 | 0.00 | 0.00 | 46 | 1012.7 |
| 20260507201537 | 23 | 132 | 0.0 | 11.3 | 0.00 | 0.00 | 0.00 | 63 | 1014.7 |
| 20260507201515 | 19 | 197 | 19.3 | 43.5 | 0.00 | 0.00 | 0.00 | 47 | 1013.1 |
| 20260507200029 | 23 | 148 | 0.0 | 4.8 | 0.00 | 0.00 | 0.00 | 63 | 1014.8 |
| 20260507200008 | 19 | 189 | 17.7 | 43.5 | 0.00 | 0.00 | 0.00 | 47 | 1013.3 |
| 20260507194525 | 23 | 144 | 0.0 | 11.3 | 0.00 | 0.00 | 0.00 | 64 | 1014.9 |
| 20260507194506 | 18 | 217 | 14.5 | 33.8 | 0.00 | 0.00 | 0.00 | 47 | 1013.5 |
| 20260507193020 | 23 | 155 | 0.0 | 0.0 | 0.00 | 0.00 | 0.00 | 66 | 1014.9 |
| 20260507193005 | 18 | 199 | 16.1 | 40.2 | 0.00 | 0.00 | 0.00 | 48 | 1013.8 |
| 20260507191600 | 18 | 184 | 16.1 | 37.0 | 0.00 | 0.00 | 0.00 | 49 | 1014.1 |
| 20260507191519 | 22 | 162 | 0.0 | 0.0 | 0.00 | 0.00 | 0.00 | 67 | 1015.0 |
| 20260507190059 | 18 | 219 | 16.1 | 35.4 | 0.00 | 0.00 | 0.00 | 49 | 1014.1 |
| 20260507190019 | 22 | 156 | 0.0 | 0.0 | 0.00 | 0.00 | 0.00 | 67 | 1015.1 |
| 20260507184558 | 18 | 233 | 17.7 | 40.2 | 0.00 | 0.00 | 0.00 | 50 | 1014.2 |
| 20260507184516 | 22 | 128 | 0.0 | 1.6 | 0.00 | 0.00 | 0.00 | 68 | 1015.3 |
| 20260507183054 | 17 | 218 | 20.9 | 35.4 | 0.00 | 0.00 | 0.00 | 50 | 1014.4 |
| 20260507183017 | 22 | 134 | 0.0 | 0.0 | 0.00 | 0.00 | 0.00 | 68 | 1015.4 |
| 20260507181553 | 18 | 198 | 17.7 | 30.6 | 0.00 | 0.00 | 0.00 | 49 | 1014.7 |
| 20260507181513 | 22 | 148 | 0.0 | 0.0 | 0.00 | 0.00 | 0.00 | 67 | 1015.4 |
| 20260507180052 | 17 | 196 | 20.9 | 38.6 | 0.00 | 0.00 | 0.00 | 51 | 1015.0 |
| 20260507180011 | 22 | 127 | 0.0 | 0.0 | 0.00 | 0.00 | 0.00 | 68 | 1015.5 |
| 20260507174614 | 17 | 195 | 20.9 | 43.5 | 0.00 | 0.00 | 0.00 | 50 | 1015.2 |
| 20260507174511 | 22 | 141 | 0.0 | 0.0 | 0.00 | 0.00 | 0.00 | 67 | 1015.6 |
| 20260507173045 | 17 | 245 | 14.5 | 27.4 | 0.00 | 0.00 | 0.00 | 50 | 1015.4 |
| 20260507173018 | 22 | 141 | 0.0 | 0.0 | 0.00 | 0.00 | 0.00 | 68 | 1015.7 |
| 20260507171600 | 16 | 222 | 14.5 | 33.8 | 0.00 | 0.00 | 0.00 | 52 | 1015.6 |
| 20260507171504 | 21 | 153 | 0.0 | 0.0 | 0.00 | 0.00 | 0.00 | 70 | 1015.6 |
| 20260507170100 | 20 | 126 | 0.0 | 0.0 | 0.00 | 0.00 | 0.00 | 73 | 1015.7 |
| 20260507170042 | 16 | 216 | 16.1 | 35.4 | 0.00 | 0.00 | 0.00 | 51 | 1016.0 |
| 20260507164555 | 20 | 150 | 0.0 | 0.0 | 0.00 | 0.00 | 0.00 | 74 | 1015.9 |
| 20260507164541 | 16 | 231 | 17.7 | 33.8 | 0.00 | 0.00 | 0.00 | 52 | 1016.3 |
| 20260507163057 | 20 | 152 | 0.0 | 0.0 | 0.00 | 0.00 | 0.00 | 75 | 1016.0 |
| 20260507163037 | 16 | 228 | 9.7 | 38.6 | 0.00 | 0.00 | 0.00 | 52 | 1016.5 |
| 20260507161550 | 18 | 132 | 0.0 | 0.0 | 0.00 | 0.00 | 0.00 | 80 | 1016.1 |
| 20260507161539 | 16 | 212 | 14.5 | 35.4 | 0.00 | 0.00 | 0.00 | 54 | 1016.5 |
| 20260507160047 | 17 | 122 | 0.0 | 0.0 | 0.00 | 0.00 | 0.00 | 82 | 1016.1 |
| 20260507160044 | 15 | 239 | 9.7 | 29.0 | 0.00 | 0.00 | 0.00 | 55 | 1016.7 |
| 20260507154541 | 17 | 205 | 0.0 | 0.0 | 0.00 | 0.00 | 0.00 | 85 | 1016.4 |
| 20260507154530 | 15 | 278 | 16.1 | 38.6 | 0.00 | 0.00 | 0.00 | 57 | 1016.9 |
| 20260507153037 | 16 | 207 | 0.0 | 0.0 | 0.00 | 0.00 | 0.00 | 88 | 1016.1 |
| 20260507153029 | 15 | 222 | 19.3 | 32.2 | 0.00 | 0.00 | 0.00 | 56 | 1017.1 |
| 20260507151538 | 15 | 209 | 0.0 | 0.0 | 0.00 | 0.00 | 0.00 | 90 | 1016.3 |
| 20260507151524 | 14 | 258 | 12.9 | 30.6 | 0.00 | 0.00 | 0.00 | 58 | 1017.2 |
| 20260507150036 | 15 | 209 | 0.0 | 0.0 | 0.00 | 0.00 | 0.00 | 92 | 1016.2 |
| 20260507150021 | 13 | 206 | 17.7 | 27.4 | 0.00 | 0.00 | 0.00 | 59 | 1017.4 |
| 20260507144552 | 15 | 209 | 0.0 | 0.0 | 0.00 | 0.00 | 0.00 | 92 | 1016.2 |
| 20260507144520 | 13 | 247 | 12.9 | 30.6 | 0.00 | 0.00 | 0.00 | 62 | 1017.4 |
| 20260507143035 | 14 | 209 | 0.0 | 0.0 | 0.00 | 0.00 | 0.00 | 93 | 1016.0 |
| 20260507143014 | 13 | 191 | 12.9 | 24.1 | 0.00 | 0.00 | 0.00 | 64 | 1017.6 |
| 20260507141535 | 13 | 209 | 0.0 | 0.0 | 0.00 | 0.00 | 0.00 | 93 | 1015.8 |
| 20260507141510 | 12 | 197 | 12.9 | 29.0 | 0.00 | 0.00 | 0.00 | 66 | 1017.5 |
| 20260507140034 | 13 | 209 | 0.0 | 0.0 | 0.00 | 0.00 | 0.00 | 93 | 1015.7 |
| 20260507140017 | 12 | 224 | 11.3 | 25.7 | 0.00 | 0.00 | 0.00 | 68 | 1017.7 |
| 20260507134533 | 13 | 209 | 0.0 | 0.0 | 0.00 | 0.00 | 0.00 | 92 | 1015.5 |
| 20260507134503 | 11 | 285 | 3.2 | 24.1 | 0.00 | 0.00 | 0.00 | 72 | 1017.7 |
| 20260507133105 | 10 | 208 | 14.5 | 22.5 | 0.00 | 0.00 | 0.00 | 75 | 1017.6 |
| 20260507133036 | 13 | 209 | 0.0 | 0.0 | 0.00 | 0.00 | 0.00 | 92 | 1015.4 |
| 20260507131618 | 10 | 268 | 12.9 | 19.3 | 0.00 | 0.00 | 0.00 | 77 | 1017.6 |
| 20260507131535 | 12 | 209 | 0.0 | 0.0 | 0.00 | 0.00 | 0.00 | 91 | 1015.3 |
| 20260507130052 | 8 | 191 | 9.7 | 22.5 | 0.00 | 0.00 | 0.00 | 78 | 1017.9 |
| 20260507130031 | 12 | 209 | 0.0 | 0.0 | 0.00 | 0.00 | 0.00 | 91 | 1015.2 |
| 20260507124600 | 8 | 202 | 9.7 | 22.5 | 0.00 | 0.00 | 0.00 | 80 | 1018.0 |
| 20260507124530 | 13 | 209 | 0.0 | 0.0 | 0.00 | 0.00 | 0.00 | 91 | 1015.1 |
| 20260507123051 | 7 | 191 | 8.0 | 19.3 | 0.00 | 0.00 | 0.00 | 83 | 1018.0 |
| 20260507123029 | 13 | 209 | 0.0 | 0.0 | 0.00 | 0.00 | 0.00 | 91 | 1015.0 |
| 20260507121550 | 6 | 180 | 6.4 | 11.3 | 0.00 | 0.00 | 0.00 | 84 | 1018.1 |
| 20260507121526 | 13 | 209 | 0.0 | 0.0 | 0.00 | 0.00 | 0.00 | 90 | 1015.0 |
| 20260507120049 | 6 | 149 | 4.8 | 9.7 | 0.00 | 0.00 | 0.00 | 85 | 1017.9 |
| 20260507120024 | 13 | 209 | 0.0 | 0.0 | 0.00 | 0.00 | 0.00 | 90 | 1015.2 |
| 20260507114548 | 5 | 203 | 3.2 | 8.0 | 0.00 | 0.00 | 0.00 | 85 | 1017.9 |
| 20260507114523 | 13 | 209 | 0.0 | 0.0 | 0.00 | 0.00 | 0.00 | 90 | 1015.2 |
| 20260507113106 | 5 | 359 | 4.8 | 9.7 | 0.00 | 0.00 | 0.00 | 85 | 1017.9 |
| 20260507113023 | 13 | 209 | 0.0 | 0.0 | 0.00 | 0.00 | 0.00 | 90 | 1015.2 |
| 20260507111544 | 5 | 359 | 1.6 | 6.4 | 0.00 | 0.00 | 0.00 | 84 | 1017.8 |
| 20260507111534 | 13 | 209 | 0.0 | 0.0 | 0.00 | 0.00 | 0.00 | 89 | 1015.4 |
| 20260507110043 | 5 | 359 | 3.2 | 6.4 | 0.00 | 0.00 | 0.00 | 84 | 1017.8 |
| 20260507110019 | 13 | 209 | 0.0 | 0.0 | 0.00 | 0.00 | 0.00 | 89 | 1015.4 |
| 20260507104549 | 5 | 359 | 3.2 | 8.0 | 0.00 | 0.00 | 0.00 | 83 | 1017.8 |
| 20260507104520 | 13 | 209 | 0.0 | 0.0 | 0.00 | 0.00 | 0.00 | 89 | 1015.4 |
| 20260507103038 | 6 | 359 | 3.2 | 9.7 | 0.00 | 0.00 | 0.00 | 82 | 1017.8 |
| 20260507103014 | 13 | 209 | 0.0 | 0.0 | 0.00 | 0.00 | 0.00 | 88 | 1015.6 |
| 20260507101536 | 6 | 359 | 4.8 | 8.0 | 0.00 | 0.00 | 0.00 | 82 | 1017.9 |
| 20260507101513 | 14 | 209 | 0.0 | 0.0 | 0.00 | 0.00 | 0.00 | 88 | 1015.6 |
| 20260507100043 | 6 | 359 | 3.2 | 6.4 | 0.00 | 0.00 | 0.00 | 81 | 1017.9 |
| 20260507100016 | 14 | 209 | 0.0 | 0.0 | 0.00 | 0.00 | 0.00 | 87 | 1015.7 |
| 20260507094533 | 6 | 359 | 3.2 | 8.0 | 0.00 | 0.00 | 0.00 | 79 | 1018.0 |
| 20260507094508 | 14 | 209 | 0.0 | 0.0 | 0.00 | 0.00 | 0.00 | 87 | 1015.7 |
| 20260507093034 | 6 | 359 | 4.8 | 9.7 | 0.00 | 0.00 | 0.00 | 77 | 1018.1 |
| 20260507093007 | 14 | 209 | 0.0 | 0.0 | 0.00 | 0.00 | 0.00 | 87 | 1015.9 |
| 20260507091529 | 6 | 202 | 4.8 | 9.7 | 0.00 | 0.00 | 0.00 | 76 | 1018.1 |
| 20260507091503 | 15 | 209 | 0.0 | 0.0 | 0.00 | 0.00 | 0.00 | 86 | 1016.1 |
| 20260507090100 | 15 | 209 | 0.0 | 0.0 | 0.00 | 0.00 | 0.00 | 86 | 1016.3 |
| 20260507090023 | 7 | 211 | 4.8 | 11.3 | 0.00 | 0.00 | 0.00 | 75 | 1018.2 |
| 20260507084557 | 15 | 209 | 0.0 | 0.0 | 0.00 | 0.00 | 0.00 | 85 | 1016.4 |
| 20260507084542 | 7 | 177 | 4.8 | 12.9 | 0.00 | 0.00 | 0.00 | 74 | 1018.2 |
| 20260507083056 | 15 | 209 | 0.0 | 0.0 | 0.00 | 0.00 | 0.00 | 85 | 1016.4 |
| 20260507083024 | 7 | 169 | 4.8 | 9.7 | 0.00 | 0.00 | 0.00 | 74 | 1018.3 |
| 20260507081557 | 15 | 209 | 0.0 | 0.0 | 0.00 | 0.00 | 0.00 | 84 | 1016.6 |
| 20260507081516 | 7 | 172 | 4.8 | 9.7 | 0.00 | 0.00 | 0.00 | 73 | 1018.3 |
| 20260507080052 | 16 | 209 | 0.0 | 0.0 | 0.00 | 0.00 | 0.00 | 84 | 1016.5 |
| 20260507080015 | 7 | 180 | 4.8 | 9.7 | 0.00 | 0.00 | 0.00 | 71 | 1018.3 |
| 20260507074551 | 16 | 209 | 0.0 | 0.0 | 0.00 | 0.00 | 0.00 | 83 | 1016.5 |
| 20260507074513 | 8 | 228 | 4.8 | 11.3 | 0.00 | 0.00 | 0.00 | 70 | 1018.4 |
| 20260507073052 | 16 | 209 | 0.0 | 0.0 | 0.00 | 0.00 | 0.00 | 83 | 1016.5 |
| 20260507073010 | 7 | 229 | 6.4 | 11.3 | 0.00 | 0.00 | 0.00 | 71 | 1018.4 |
| 20260507071551 | 16 | 209 | 0.0 | 0.0 | 0.00 | 0.00 | 0.00 | 82 | 1016.6 |
| 20260507071514 | 7 | 215 | 6.4 | 9.7 | 0.00 | 0.00 | 0.00 | 71 | 1018.5 |
| 20260507070045 | 16 | 209 | 0.0 | 0.0 | 0.00 | 0.00 | 0.00 | 82 | 1016.7 |
| 20260507070015 | 8 | 202 | 4.8 | 8.0 | 0.00 | 0.00 | 0.00 | 70 | 1018.7 |
| 20260507064544 | 16 | 209 | 0.0 | 0.0 | 0.00 | 0.00 | 0.00 | 80 | 1016.9 |
| 20260507064505 | 8 | 226 | 3.2 | 9.7 | 0.00 | 0.00 | 0.00 | 69 | 1018.7 |
| 20260507063048 | 16 | 209 | 0.0 | 0.0 | 0.00 | 0.00 | 0.00 | 80 | 1017.0 |
| 20260507063002 | 8 | 197 | 4.8 | 8.0 | 0.00 | 0.00 | 0.00 | 68 | 1018.9 |
| 20260507061601 | 8 | 215 | 3.2 | 8.0 | 0.00 | 0.00 | 0.00 | 66 | 1019.0 |
| 20260507061544 | 16 | 209 | 0.0 | 0.0 | 0.00 | 0.00 | 0.00 | 79 | 1016.7 |
| 20260507060100 | 9 | 197 | 4.8 | 11.3 | 0.00 | 0.00 | 0.00 | 65 | 1019.1 |
| 20260507060051 | 16 | 209 | 0.0 | 0.0 | 0.00 | 0.00 | 0.00 | 78 | 1016.8 |
| 20260507054557 | 8 | 188 | 3.2 | 6.4 | 0.00 | 0.05 | 0.00 | 70 | 1019.0 |
| 20260507054548 | 17 | 209 | 0.0 | 0.0 | 0.00 | 0.00 | 0.00 | 77 | 1016.8 |
| 20260507053057 | 8 | 199 | 3.2 | 4.8 | 0.00 | 0.05 | 0.00 | 73 | 1019.1 |
| 20260507053049 | 17 | 209 | 0.0 | 0.0 | 0.00 | 0.00 | 0.00 | 77 | 1016.7 |
| 20260507051559 | 8 | 181 | 1.6 | 4.8 | 0.00 | 0.05 | 0.00 | 74 | 1018.9 |
| 20260507051542 | 17 | 209 | 0.0 | 0.0 | 0.00 | 0.00 | 0.00 | 76 | 1016.7 |
| 20260507050105 | 8 | 204 | 1.6 | 4.8 | 0.00 | 0.05 | 0.00 | 73 | 1019.0 |
| 20260507050041 | 17 | 209 | 0.0 | 0.0 | 0.00 | 0.00 | 0.00 | 76 | 1016.8 |
| 20260507044554 | 17 | 209 | 0.0 | 0.0 | 0.00 | 0.00 | 0.00 | 74 | 1016.7 |
| 20260507043048 | 8 | 185 | 1.6 | 4.8 | 0.00 | 0.08 | 0.05 | 71 | 1019.1 |
| 20260507043040 | 17 | 209 | 0.0 | 0.0 | 0.00 | 0.00 | 0.00 | 73 | 1016.6 |
| 20260507041548 | 8 | 166 | 1.6 | 6.4 | 0.00 | 0.08 | 0.05 | 71 | 1019.0 |
| 20260507041540 | 17 | 209 | 0.0 | 0.0 | 0.00 | 0.00 | 0.00 | 72 | 1016.6 |
| 20260507040050 | 8 | 173 | 1.6 | 4.8 | 0.00 | 0.08 | 0.05 | 72 | 1019.2 |
| 20260507040040 | 18 | 209 | 0.0 | 0.0 | 0.00 | 0.00 | 0.00 | 71 | 1016.3 |
| 20260507034549 | 7 | 205 | 3.2 | 8.0 | 0.00 | 0.08 | 0.05 | 73 | 1019.3 |
| 20260507034542 | 18 | 209 | 0.0 | 0.0 | 0.00 | 0.00 | 0.00 | 70 | 1016.2 |
| 20260507033048 | 7 | 178 | 3.2 | 6.4 | 0.00 | 0.08 | 0.05 | 72 | 1019.4 |
| 20260507033038 | 18 | 209 | 0.0 | 0.0 | 0.00 | 0.00 | 0.00 | 70 | 1016.1 |
| 20260507031546 | 8 | 165 | 3.2 | 8.0 | 0.00 | 0.08 | 0.05 | 72 | 1019.1 |
| 20260507031538 | 18 | 209 | 0.0 | 0.0 | 0.00 | 0.00 | 0.00 | 69 | 1016.0 |
| 20260507030047 | 8 | 197 | 4.8 | 9.7 | 0.00 | 0.08 | 0.05 | 70 | 1019.2 |
| 20260507030038 | 19 | 209 | 0.0 | 0.0 | 0.00 | 0.00 | 0.00 | 67 | 1015.8 |
| 20260507024548 | 8 | 206 | 1.6 | 6.4 | 0.00 | 0.08 | 0.05 | 68 | 1019.1 |
| 20260507024541 | 19 | 207 | 0.0 | 0.0 | 0.00 | 0.00 | 0.00 | 66 | 1015.7 |
| 20260507023045 | 9 | 202 | 3.2 | 8.0 | 0.00 | 0.08 | 0.05 | 65 | 1018.9 |
| 20260507023036 | 20 | 207 | 0.0 | 0.0 | 0.00 | 0.00 | 0.00 | 66 | 1015.5 |
| 20260507021555 | 10 | 359 | 0.0 | 3.2 | 0.00 | 0.08 | 0.05 | 63 | 1018.9 |
| 20260507021536 | 20 | 194 | 0.0 | 0.0 | 0.00 | 0.00 | 0.00 | 66 | 1015.4 |
| 20260507020044 | 10 | 216 | 1.6 | 4.8 | 0.00 | 0.08 | 0.05 | 58 | 1018.7 |
| 20260507014544 | 11 | 209 | 3.2 | 4.8 | 0.00 | 0.08 | 0.05 | 55 | 1018.5 |
| 20260507014536 | 20 | 161 | 0.0 | 0.0 | 0.00 | 0.00 | 0.00 | 67 | 1015.2 |
| 20260507013043 | 12 | 300 | 0.0 | 1.6 | 0.00 | 0.08 | 0.05 | 51 | 1018.4 |
| 20260507013034 | 20 | 146 | 0.0 | 1.6 | 0.00 | 0.00 | 0.00 | 69 | 1015.0 |
| 20260507011545 | 13 | 298 | 0.0 | 0.0 | 0.00 | 0.08 | 0.05 | 43 | 1018.4 |
| 20260507011534 | 20 | 167 | 0.0 | 0.0 | 0.00 | 0.00 | 0.00 | 69 | 1015.0 |
| 20260507010045 | 13 | 298 | 0.0 | 4.8 | 0.00 | 0.08 | 0.05 | 36 | 1018.3 |
| 20260507010037 | 20 | 140 | 0.0 | 0.0 | 0.00 | 0.00 | 0.00 | 68 | 1014.8 |
| 20260507004543 | 14 | 339 | 1.6 | 4.8 | 0.00 | 0.08 | 0.05 | 34 | 1018.4 |
| 20260507004534 | 21 | 163 | 0.0 | 1.6 | 0.00 | 0.00 | 0.00 | 63 | 1014.9 |
| 20260507003041 | 15 | 280 | 1.6 | 6.4 | 0.00 | 0.08 | 0.05 | 33 | 1018.3 |
| 20260507003033 | 21 | 144 | 0.0 | 0.0 | 0.00 | 0.00 | 0.00 | 63 | 1014.9 |
| 20260507001541 | 15 | 301 | 1.6 | 9.7 | 0.00 | 0.08 | 0.05 | 34 | 1018.4 |
| 20260507001538 | 21 | 162 | 0.0 | 0.0 | 0.00 | 0.00 | 0.00 | 63 | 1014.9 |
| 20260507000041 | 15 | 13 | 4.8 | 14.5 | 0.00 | 0.08 | 0.05 | 33 | 1018.3 |
| 20260507000030 | 21 | 132 | 0.0 | 0.0 | 0.00 | 0.00 | 0.00 | 61 | 1014.8 |
| 20260506234550 | 15 | 274 | 1.6 | 8.0 | 0.00 | 0.08 | 0.05 | 33 | 1018.6 |
| 20260506234529 | 21 | 136 | 0.0 | 0.0 | 0.00 | 0.00 | 0.00 | 62 | 1014.9 |
| 20260506233040 | 15 | 8 | 6.4 | 12.9 | 0.00 | 0.08 | 0.05 | 33 | 1018.4 |
| 20260506233031 | 21 | 139 | 0.0 | 0.0 | 0.00 | 0.00 | 0.00 | 63 | 1014.9 |